Location: Bastelaar
(51.0950°N, 3.8602°E)
Time: 18:16:01
(UTC+00:00)

Cosmos 1536 Rocket - Pass Details

Date: 18 November 2025
Orbit: 599 x 625 km, 82.5° (Epoch: 10 December)

Event Time Altitude Azimuth Distance (km) Brightness Sun altitude
Rises 17:04:49 0° 355° (N) 2,921 6.9 -11.2°
Reaches altitude 10° 17:07:14 10° 4° (N) 2,006 6.0 -11.5°
Maximum altitude 17:11:19 35° 71° (ENE) 1,006 4.1 -12.2°
Drops below altitude 10° 17:15:22 10° 138° (SE) 1,979 5.9 -12.8°
Sets 17:17:43 0° 148° (SSE) 2,875 6.8 -13.1°
